Погода в Волгограде

Погода в Волгограде : погода сейчас, прогноз погоды и архив. Всё, что Вы хотите узнать о погоде в Волгограде!

Хотите узнать прогноз погоды в Волгограде? Тогда Вам сюда: Погода в Волгограде

Поиск расширенной информации на нашем сайте:

Другие новости

Новости СМИ2

Главная страница сайта

Новости сайта

03.07.2017

Напоминаем, что на нашем специализированном сайте Метеоцентр.Азия вы можете получить высокодетализированные автоматические прогнозы погоды по пунктам России, СНГ и мира в авиационном формате (включающие направление и скорость ветра, видимость, явления погоды, количество и форму облачности, нижнюю и верхнюю границу облачности).


Погода в Волгограде - сегодня

Время (UTC), дата Ветер
(°,м/с) 
Видим.   Явления Облачность Т
(°С)
Тd
(°С)
f(%) Тe
(°С)
Pmin
(гПа)
dP
(гПа)
Po
(мм)
O2
(г/м3)
Тmin Tmax R s Состояние
почвы
18 19.05.18 220 (ЮЗ) 3{11}  10 км    8/0 средняя, верхняя 
[Ac trans|Ci fib]
+21.6 +12.7 57 +27  1013.5  0.9  747  276           
21 19.05.18 260 (З) 10 км    6/0 средняя 
[Ac trans]
+18.8 +12.3 66 +24  1014  0.3  747  279           
00 20.05.18 270 (З) 10 км    ясно 
+14.9 +11.6 81 +19  1014.4  0.1  747  283           
03 20.05.18 тихо ()   10 км    8/0 средняя, верхняя 
[Ac trans|Ci fib]
+17.3 +11.3 68 +20  1014.6  0.4  747  281  +13         
06 20.05.18 200 (Ю) 10 км    8/0 средняя 
[Ac trans]
+24.4 +11.1 43 +27  1015.3  748  275           
09 20.05.18 230 (ЮЗ) 10 км    6/3 1000 м средняя 
[Cu hum|Ac trans]
+27.7 +7.9 29 +28  1014.6  -0.5  748  272           
12 20.05.18 180 (Ю) 5-12{12}  10 км    6/4 1000 м средняя 
[Cu med, cong|Ac trans]
+28.9 +6.9 25 +29  1013.4  -1.1  747  271           
15 20.05.18 140 (ЮВ) 5{12}  10 км  гроза, ливневой дождь  8/8 1000 м кучево-дожд. 
[Cb calv]
+27.4 +10.9 36 +30  1013  -0.5  747  271    +30       
18 20.05.18 090 (В) 10 км  в посл. час гроза{ливн. осадки}  8/8 1000 м кучево-дожд. 
[Cb calv]
+21.9 +12.9 57 +27  1014.8  1.5  748  276           
21 20.05.18 100 (В) 10 км    5/0 средняя 
[Ac trans]
+19.2 +12.7 66 +25  1014.6  -0.5  747  279           
00 21.05.18 110 (В) 10 км    6/0 верхняя 
[Ci fib]
+17.5 +11.5 68 +21  1014.5  -0.2  747  281           
03 21.05.18 130 (ЮВ) 10 км    6/0 верхняя 
[Ci fib]
+19.8 +13 65 +26  1015.2  0.8  748  278  +16.8         
06 21.05.18 360 (С) 10 км    8/0 средняя 
[Ac trans]
+23.2 +13.7 55 +30  1015.5  0.5  748  275           
09 21.05.18 100 (В) 10 км    8/0 средняя 
[Ac trans]
+27.2 +8.3 30 +27  1014.8  -0.4  748  273           
12 21.05.18 300 (СЗ) 10 км    8/0 средняя 
[Ac trans]
+28.4 +8.1 28 +28  1014.8  748  272           
15 21.05.18 320 (СЗ) 7{12}  10 км    8/0 средняя 
[Ac trans]
+24.5 +15.4 57 +34  1015.2  0.2  748  273    +29.3       
18 21.05.18 330 (СЗ) 5{12}  10 км    8/0 средняя 
[Ac trans]
+21.9 +15.7 68 +32  1016.6  1.2  749  276           
21 21.05.18 330 (СЗ) 10 км  в посл. час гроза  8/8 1000 м кучево-дожд. 
[Cb calv]
+21.3 +15.5 70 +31  1016.8  0.1  749  277           
00 22.05.18 010 (С) 10 км  {гроза, ливн. осадки}  8/8 1500 м кучево-дожд. 
[Cb calv]
+18.9 +12.9 68 +24  1017.7  0.7  750  280           
03 22.05.18 060 (СВ) 8-10{10}  10 км    8/4 1500 м кучево-дожд., средняя 
[Cb calv|Ac trans]
+19.7 +14.7 73 +28  1019.1  1.4  751  279  +18.3         
06 22.05.18 060 (СВ) 11-14{13}  10 км    8/3 1500 м кучево-дожд., средняя 
[Cb calv|Ac trans]
+22.8 +14.5 59 +31  1019.4  0.5  751  276           
09 22.05.18 100 (В) 8-11{15}  10 км  в посл. час ливневой дождь  9/3 1500 м кучево-дожд., средняя 
[Cb calv|Ac trans]
+26.5 +9.6 35 +27  1020.4  1.1  752  275           
12 22.05.18 140 (ЮВ) 7-10{15}  10 км  в посл. час гроза{ливн. осадки}  8/0 средняя 
[Ac trans]
+30.9 +9.1 26 +31  1019.6  -0.6  752  271           
15 22.05.18 320 (СЗ) 1{10}  10 км  {гроза}  9/3 1500 м кучево-дожд., средняя 
[Cb calv|Ac trans]
+27.6 +15.6 48 +37  1020.2  0.4  752  272    +31.3       
18 22.05.18 060 (СВ) 7{10}  10 км  {гроза}  8/0 средняя 
[Ac trans]
+26 +10 37 +27  1020.7  0.4  752  275           
Время (UTC), дата Ветер
(°,м/с) 
Видим.   Явления Облачность Т
(°С)
Тd
(°С)
f(%) Тe
(°С)
Pmin
(гПа)
dP
(гПа)
Po
(мм)
O2
(г/м3)
Тmin Tmax R s Состояние
почвы

Для получения пояснительной информации подведите курсор к названию столбца.

ПОГОДА в Волгограде - архив

Всё, что Вы хотите узнать о погоде в Волгограде - удобно и подробно!

Выберите нужную дату (начиная с 1 января 2015* года) и нажмите кнопку "Найти".
Будут отображены архивные сводки погоды по пункту Волгоград, начиная с указанной даты.


Отображать данные в формате CSV (для использования в таблицах Excel)


Внимание! Наш архив погоды предназначен исключительно для личного некоммерческого использования в познавательных целях. Если Вам необходимы официальные справки о состоянии погоды (для производственных, юридических, коммерческих и т.п. целей), обращайтесь в органы Росгидромета.

*Примечание: данная дата относится к архиву по метеостанциям СССР (Россия, СНГ, Балтия).
Архив по метеостанциям Зарубежной Европы и Азии (кроме Китая) хранится 10 дней, по другим регионам земного шара (Китай, Африка, Америка, Австралия, Океания) - 1 день.

Волгоград - район местоположения метеостанции


Название, широта, долгота, высота метеостанции:
Волгоград (Гумрак) 48.8°ш. 44.4°д. 134 м над ур. моря [Российская Федерация]

Дополнительная информация

В oтличие oт бoльшинства пoгoдных сайтoв мы публикуем пoдрoбную метеoинфoрмацию в детальнoм прoфессиoнальнoм фoрмате.

Характеристики температуры и влажнoсти вoздуха измеряются на высoте 2 м в тени вдали oт зданий и деревьев.
Скoрoсть ветра измеряется на высoте 10 м (на урoвне рoста челoвека скoрoсть ветра ниже в 1.5-2 раза). Если метеoстанция нахoдится в гoрoде или в лесу, тo скoрoсть ветра занижена на 2-4 м/с пo сравнению с oткрытым местoм. Скoрoсть ветра над акватoриями крупных рек и oзёр, а также на вершинах хoлмoв на 2-5 м/с выше, чем в oбычных услoвиях.
Атмoсфернoе давление в разных тoчках местнoсти мoжет значительнo oтличаться oт давления на метеoстанции, в зависимoсти oт услoвий рельефа (при пoдъёме на 10 м давление пoнижается примернo на 1 мм рт.ст.).